Preview of NWS' New Version of Forecast
This preview is not operational and should not be used for support decisions.
Latest weather observations around

Trinity Center (KO86)

Using English Units (Switch to International System of Units)
Date/ Time (PDT) Wind (mph) Vis. (mi) Weather Sky Cond. Temp (°F) Rel. Humidity Wind Chill (°F) Heat Index (°F) Pressure Precip. (in)
Air Dwpt 6 hour Altimeter (inHg) Sea level (inHg) 1 hr 3 hr 6 hr
Max Min
Aug 23 04:35 W 3 10 Clear   57 39     51%     29.89        
Aug 23 04:15 W 5 10 Clear   57 39     51%     29.89        
Aug 23 03:55 W 6 10 Clear   57 39     51%     29.89        
Notice The following observation data may not be complete
Aug 23 03:35 W 3 10 Clear     39      %     29.89        
Aug 23 03:15 W 6 10 Clear   59 39     48%     29.89        
Aug 23 02:55 W 6 10 Clear   59 37     45%     29.89        
Aug 23 02:35 WSW 5 10 Clear   63 37     39%     29.89        
Aug 23 02:15 W 5 10 Clear   63 37     39%     29.89        
Aug 23 01:55 W 7 10 Clear   61 37     42%     29.89        
Aug 23 01:35 W 6 10 Clear   59 37     45%     29.9        
Aug 23 01:15 W 6 10 Clear   59 37     45%     29.9        
Aug 23 00:55 W 6 10 Clear   61 37     42%     29.9        
Aug 23 00:35 Calm 10 Clear   63 37     39%     29.89        
Aug 23 00:15 W 5 10 Clear   63 37     39%     29.89        
Aug 22 23:55 Calm 10 Clear   63 37     39%     29.89        
Notice The following observation data may not be complete
Aug 22 23:35 WNW 3 10 Clear     37      %     29.89        
Aug 22 23:15 Calm 10 Clear   64 37     37%     29.88        
Aug 22 22:55 W 3 10 Clear   64 37     37%     29.88        
Notice The following observation data may not be complete
Aug 22 22:35 WNW 3 10 Clear     39      %     29.88        
Aug 22 22:15 Calm 10 Clear   66 39     37%     29.88        
Aug 22 21:55 Calm 10 Clear   68 39     35%     29.87        
Aug 22 21:35 Calm 10 Clear   72 37     29%   70 29.87        
Aug 22 21:15 Calm 10 Clear   72 37     29%   70 29.86        
Aug 22 20:55 Calm 10 Clear   73 39     29%   72 29.86        
Aug 22 20:35 SW 3 10 Clear   77 37     24%   76 29.85        
Aug 22 20:15 WSW 3 10 Clear   79 36     21%   77 29.85        
Aug 22 19:55 Calm 10 Clear   81 34     18%   79 29.84        
Aug 22 19:35 NW 6 10 Clear   82 36     19%   80 29.83        
Aug 22 19:15 NW 8 10 Clear   84 34     16%   81 29.83        
Aug 22 18:55 N 8 10 Clear   86 34     16%   83 29.83        
Aug 22 18:35 NNW 9 10 Clear   90 32     13%   86 29.82        
Aug 22 18:15 N 6 10 Clear   90 32     13%   86 29.82        
Aug 22 17:55 NNW 10 10 Clear   90 32     13%   86 29.82        
Aug 22 17:35 NNW 9 10 Clear   91 30     11%   87 29.83        
Aug 22 17:15 ESE 3 10 Clear   91        %     29.82        
Aug 22 16:55 SE 3 10 Clear   91        %     29.83        
Aug 22 16:30 S 5 10 Clear   91 30     11%   87 29.83        
Aug 22 16:15 Calm 10 Clear   91        %     29.83        
Aug 22 15:55 SSE 6 10 Clear   91 32     12%   87 29.84        
Aug 22 15:35 SE 3 10 Clear   90 32     13%   86 29.85        
Aug 22 15:15 SSE 6 10 Clear   90 36     15%   86 29.86        
Aug 22 14:55 SE 5 10 Clear   90 36     15%   86 29.86        
Aug 22 14:35 SSE 5 10 Clear   88 36     16%   84 29.87        
Aug 22 14:15 S 5 10 Clear   86 39     19%   83 29.88        
Aug 22 13:55 SSE 5 10 Clear   86 45     24%   83 29.89        
Aug 22 13:35 SSE 6 10 Clear   84 41     22%   82 29.89        
Aug 22 13:15 SSE 5 10 Clear   84 41     22%   82 29.9        
Aug 22 12:55 Calm 10 Clear   84 41     22%   82 29.91        
Aug 22 12:35 S 7 10 Clear   82 41     23%   80 29.91        
Aug 22 12:15 E 5 10 Clear   82 45     27%   81 29.92        
Aug 22 11:55 ESE 3 10 Clear   81 45     28%   80 29.93        
Aug 22 11:35 ESE 3 10 Clear   81 45     28%   80 29.93        
Aug 22 11:15 ENE 6 10 Clear   81 45     28%   80 29.94        
Aug 22 10:55 NE 8 10 Clear   79 46     32%   78 29.94        
Aug 22 10:35 NE 11 10 Clear   77 46     34%   76 29.94        
Aug 22 10:15 NE 9 10 Clear   75 48     38%   74 29.94        
Aug 22 09:55 NE 9 10 Clear   75 48     38%   74 29.95        
Aug 22 09:35 NE 8 10 Clear   73 48     41%   72 29.95        
Aug 22 09:10 NE 9 10 Clear   73 48     41%   72 29.96        
Aug 22 08:55 NNE 7 10 Clear   72 50     46%   71 29.96        
Aug 22 08:35 NNE 7 10 Clear   72 52     50%   71 29.96        
Aug 22 08:15 NE 5 10 Clear   68 52     56%     29.97        
Aug 22 07:55 NE 8 10 Clear   68 52     56%     29.97        
Aug 22 07:35 NW 3 10 Clear   64 50     60%     29.97        
Aug 22 07:15 Calm 10 Clear   59 48     67%     29.97        
Notice The following observation data may not be complete
Aug 22 06:55 W 3 10 Clear     46      %     29.97        
Aug 22 06:35 W 5 10 Clear   57 46     67%     29.96        
Aug 22 06:15 W 5 10 Clear   57 48     72%     29.96        
Aug 22 05:55 W 5 10 Clear   59 50     72%     29.95        
Aug 22 05:35 W 3 10 Clear   59 50     72%     29.95        
Aug 22 05:10 SW 3 10 Clear   59 50     72%     29.95        
Aug 22 04:55 Calm 10 Clear   59 50     72%     29.95        
Aug 22 04:35 W 3 10 Clear   59 50     72%     29.95        
Aug 22 04:15 Calm 10 Clear   59 50     72%     29.95        
Aug 22 03:55 WNW 3 10 Clear   61 50     68%     29.95        
Aug 22 03:30 Calm 10 Clear   63 52     68%     29.95        
Aug 22 03:10 W 3 10 Clear   63 52     68%     29.95        
Aug 22 02:55 WSW 5 10 Clear   64 54     68%     29.95        
Aug 22 02:35 W 3 10 Clear   64 52     64%     29.95        
Aug 22 02:15 WSW 3 10 Clear   64 54     68%     29.95        
Aug 22 01:55 NW 3 10 Clear   66 54     64%     29.96        
Aug 22 01:35 Calm 10 Clear   66 54     64%     29.96        
Aug 22 01:15 W 3 10 Clear   66 54     64%     29.96        
Aug 22 00:50 Calm 10 Clear   70 55     60%     29.96        
Aug 22 00:35 N 5 10 Clear   72 55     57%   71 29.96        
Aug 22 00:10 NE 6 10 Clear   72 57     60%   71 29.97        
Aug 21 23:50 NNE 6 10 Clear   73 57     57%   73 29.96        
Aug 21 23:35 N 8 10 Clear   73 57     57%   73 29.97        
Aug 21 23:10 NE 7 10 Clear   73 57     57%   73 29.97        
Aug 21 22:55 NNW 8 10 Clear   73 57     57%   73 29.97        
Aug 21 22:35 N 6 10 Clear   73 57     57%   73 29.98        
Aug 21 22:10 NNE 7 10 Clear   75 57     54%   75 29.97        
Aug 21 21:50 NNW 7 10 Clear   77 55     47%   77 29.97        
Aug 21 21:35 WNW 7 10 Clear   77 55     47%   77 29.97        
Aug 21 21:10 W 3 10 Clear   77 55     47%   77 29.96        
Aug 21 20:50 NW 10 10 Clear   77 55     47%   77 29.96        
Aug 21 20:35 NW 6 10 Clear   77 55     47%   77 29.95        
Aug 21 20:15 NNW 8 10 Clear   79 55     45%   78 29.94        
Aug 21 19:50 NNW 6 10 Clear   81 54     39%   80 29.94        
Aug 21 19:30 N 3 10 Clear   81 57     45%   81 29.94        
Aug 21 19:10 SSE 5 10 Clear   82 57     42%   82 29.93        
Aug 21 18:55 S 5 10 Clear   84 57     40%   83 29.93        
Aug 21 18:35 S 5 10 Clear   82 55     40%   82 29.93        
Aug 21 18:15 S 9 10 Clear   84 55     37%   83 29.93        
Aug 21 17:55 SSE 10 10 Clear   84 57     40%   83 29.93        
Aug 21 17:35 SSE 6 10 Clear   84 54     35%   83 29.94        
Aug 21 17:15 SSW 5 10 Clear   84 54     35%   83 29.94        
Aug 21 16:55 SE 3 10 Clear   84 50     31%   82 29.94        
Aug 21 16:35 ENE 3 10 Clear   84 50     31%   82 29.95        
Aug 21 16:15 Calm 10 Clear   82 54     37%   81 29.95        
Aug 21 15:55 Calm 10 Clear   81 54     39%   80 29.96        
Aug 21 15:35 Calm 10 Clear   82 54     37%   81 29.96        
Aug 21 15:15 SE 3 10 Clear   82 52     35%   81 29.97        
Aug 21 14:55 Calm 10 Clear   81 52     37%   80 29.98        
Aug 21 14:35 ENE 3 10 Clear   82 54     37%   81 29.99        
Aug 21 14:15 ENE 6 10 Clear   82 54     37%   81 30        
Aug 21 13:55 ENE 5 10 Clear   82 54     37%   81 30.01        
Aug 21 13:35 ENE 3 10 Clear   81 54     39%   80 30.02        
Aug 21 13:15 ENE 3 10 Clear   79 54     42%   78 30.03        
Aug 21 12:55 SSE 3 10 Clear   77 54     44%   76 30.03        
Aug 21 12:35 SE 3 10 Clear   77 54     44%   76 30.04        
Aug 21 12:10 NE 3 10 Clear   75 52     44%   74 30.05        
Aug 21 11:55 E 3 10 Clear   73 54     50%   73 30.05        
Aug 21 11:35 ENE 3 10 Clear   72 52     50%   71 30.06        
Aug 21 11:15 ENE 3 10 Clear   72 50     46%   71 30.06        
Aug 21 10:55 Calm 10 Clear   72 50     46%   71 30.07        
Aug 21 10:35 Calm 10 Clear   68 48     49%     30.07        
Aug 21 10:15 Calm 10 Clear   68 48     49%     30.08        
Aug 21 09:55 Calm 10 Clear   66 50     56%     30.08        
Aug 21 09:35 Calm 10 Clear   66 50     56%     30.08        
Aug 21 09:15 Calm 10 Clear   64 52     64%     30.08        
Aug 21 08:55 Calm 10 Clear   64 52     64%     30.09        
Aug 21 08:35 Calm 10 Clear   64 52     64%     30.09        
Aug 21 08:15 Calm 10 Clear   61 48     63%     30.1        
Aug 21 07:55 Calm 10 Clear   61 48     63%     30.1        
Aug 21 07:35 Calm 10 Clear   59 48     67%     30.1        
Aug 21 07:15 WNW 3 10 Clear   57 46     67%     30.1        
Aug 21 06:55 WNW 3 10 Clear   55 46     72%     30.1        
Aug 21 06:35 W 3 10 Clear   55 46     72%     30.09        
Aug 21 06:15 W 3 10 Clear   55 46     72%     30.09        
Aug 21 05:55 W 5 10 Clear   55 46     72%     30.08        
Aug 21 05:35 W 5 10 Clear   55 46     72%     30.07        
Aug 21 05:15 W 6 10 Clear   57 46     67%     30.08        
Aug 21 04:55 W 5 10 Clear   57 46     67%     30.08        
Aug 21 04:35 W 5 10 Clear   57 46     67%     30.08        
Aug 21 04:15 W 6 10 Clear   57 46     67%     30.08        
Aug 21 03:50 W 5 10 Clear   57 48     72%     30.07        
Aug 21 03:35 W 6 10 Clear   57 48     72%     30.07        
Aug 21 03:10 W 5 10 Clear   57 46     67%     30.07        
Aug 21 02:55 W 5 10 Clear   59 48     67%     30.07        
Aug 21 02:35 W 3 10 Clear   59 48     67%     30.07        
Aug 21 02:15 W 5 10 Clear   59 48     67%     30.07        
Aug 21 01:55 W 6 10 Clear   59 48     67%     30.07        
Aug 21 01:35 WNW 3 10 Clear   61 48     63%     30.07        
Aug 21 01:15 W 7 10 Clear   63 48     59%     30.07        
Aug 21 00:55 W 3 10 Clear   63 48     59%     30.07        
Aug 21 00:35 W 6 10 Clear   63 48     59%     30.07        
Aug 21 00:15 W 6 10 Clear   63 48     59%     30.07        
Aug 20 23:55 W 5 10 Clear   63 48     59%     30.07        
Aug 20 23:35 W 5 10 Clear   64 48     56%     30.07        
Aug 20 23:15 Calm 10 Clear   64 48     56%     30.07        
Aug 20 22:55 Calm 10 Clear   66 48     52%     30.07        
Aug 20 22:35 WNW 3 10 Clear   66 48     52%     30.06        
Aug 20 22:15 W 6 10 Clear   68 48     49%     30.06        
Aug 20 21:55 W 3 10 Clear   70 48     46%     30.05        
Aug 20 21:35 Calm 10 Clear   72 50     46%   71 30.05        
Aug 20 21:15 W 5 10 Clear   72 50     46%   71 30.04        
Aug 20 20:55 W 5 10 Clear   73 52     47%   73 30.03        
Aug 20 20:35 W 6 10 Clear   75 52     44%   74 30.02        
Aug 20 20:15 W 5 10 Clear   75 50     41%   74 30.02        
Aug 20 19:55 Calm 10 Clear   77 50     39%   76 30.02        
Aug 20 19:35 SW 3 10 Clear   81 46     30%   80 30.01        
Aug 20 19:15 S 5 10 Clear   81 48     32%   80 30        
Aug 20 18:55 SSE 6 10 Clear   82 46     28%   81 30        
Aug 20 18:35 SE 3 10 Clear   82 48     30%   81 30        
Aug 20 18:15 SE 5 10 Clear   82 45     27%   81 30        
Aug 20 17:55 Calm 10 Clear   84 45     25%   82 29.99        
Aug 20 17:35 SE 3 10 Clear   84 45     25%   82 29.99        
Aug 20 17:15 ESE 5 10 Clear   84 48     29%   82 29.99        
Aug 20 16:55 SE 6 10 Clear   84 48     29%   82 29.99        
Aug 20 16:35 SE 5 10 Clear   86 48     27%   83 29.98        
Aug 20 16:15 SE 6 10 Clear   88 46     24%   85 29.98        
Aug 20 15:55 SSE 8 10 Clear   88 39     18%   84 29.99        
Aug 20 15:35 SSE 7 10 Clear   90 37     16%   86 29.99        
Aug 20 15:15 S 9 10 Clear   90 36     15%   86 29.99        
Aug 20 14:55 SE 6 10 Clear   90 36     15%   86 29.99        
Aug 20 14:35 SSW 5 10 Clear   90 36     15%   86 30        
Aug 20 14:15 S 9 10 Clear   90 37     16%   86 30        
Aug 20 13:55 SSE 7 10 Clear   88 37     17%   84 30.01        
Aug 20 13:30 S 8 10 Clear   86 39     19%   83 30.02        
Aug 20 13:15 SE 5 10 Clear   86 41     21%   83 30.02        
Aug 20 12:55 SE 6 10 Clear   84 41     22%   82 30.03        
Aug 20 12:30 ENE 3 10 Clear   81 52     37%   80 30.03        
Aug 20 12:15 ENE 5 10 Clear   79 48     34%   78 30.04        
Aug 20 11:55 Calm 10 Clear   77 46     34%   76 30.04        
Aug 20 11:35 NE 3 10 Clear   75 43     31%   74 30.05        
Aug 20 11:15 ENE 3 10 Clear   75 43     31%   74 30.05        
Aug 20 10:55 ENE 3 10 Clear   73 43     33%   72 30.06        
Aug 20 10:35 Calm 10 Clear   70 45     40%     30.06        
Aug 20 10:15 ESE 3 10 Clear   68 45     43%     30.06        
Aug 20 09:55 Calm 10 Clear   66 46     49%     30.07        
Aug 20 09:35 Calm 10 Clear   64 48     56%     30.07        
Aug 20 09:15 Calm 10 Clear   64 48     56%     30.07        
Aug 20 08:55 Calm 10 Clear   63 48     59%     30.07        
Aug 20 08:35 Calm 10 Clear   63 48     59%     30.07        
Aug 20 08:15 Calm 10 Clear   61 48     63%     30.08        
Aug 20 07:50 Calm 10 Clear   59 45     59%     30.07        
Aug 20 07:35 WNW 3 10 Clear   57 45     63%     30.07        
Aug 20 07:15 W 3 10 Clear   55 45     67%     30.07        
Aug 20 06:55 WNW 5 10 Clear   54 45     71%     30.06        
Aug 20 06:35 W 5 10 Clear   52 45     76%     30.06        
Aug 20 06:15 W 3 10 Clear   52 45     76%     30.06        
Aug 20 05:55 W 3 10 Clear   54 45     71%     30.05        
Aug 20 05:35 W 5 10 Clear   55 45     67%     30.04        
Aug 20 05:15 W 6 10 Clear   55 45     67%     30.04        
Aug 20 04:55 W 5 10 Clear   55 45     67%     30.04        
Notice The following observation data may not be complete
Jun 12 00:35   10 Clear CLR          %              
Jun 11 23:15 NW 5 10 Mostly Cloudy BKN050 48 41     76% 46   29.97        
Jun 11 21:15 NNE 6 10 Clear   54 39     58%     29.96        
Jun 11 20:55 N 5 10 Cloudy OVC070 54 37     54%     29.95        
Jun 11 17:55 SSE 6 10 Mostly Clear FEW120 55        %     29.91        
Jun 11 14:55 Calm 10 Clear   50 39     66%     29.95        
Jun 11 14:15 NNW 3 10 Clear CLR 50 39     66% 49   29.95        
Notice The following observation data may not be complete
Jun 11 11:55   10 Clear CLR          %              
Jun 11 10:35 Calm 10 Clear CLR 45 39     81%     29.92        
Notice The following observation data may not be complete
Jun 10 22:35   10 Partly Cloudy FEW070 SCT085          %              
Jun 10 16:15 SSW 14 10 Clear   59        %     29.86        
Jun 10 11:15 S 8 10 Mostly Cloudy BKN045 55 39     54%     29.9        
Jun 10 10:55 SSE 10 10 Cloudy BKN039 OVC046 54 39     58%     29.91        
Jun 10 02:35 W 7 10 Clear CLR 41 36     81% 36   29.92        
Jun 09 05:55 WSW 6 10 Cloudy OVC022 48 43     81% 46   29.95        
Jun 09 03:35 WSW 3 10 Mostly Cloudy SCT017 BKN023 BKN036 48 46     93% 47   29.97        
Jun 09 00:15 W 5 10 Clear CLR 50 48     94% 48   29.99        
Jun 08 21:55 WNW 3 10 Cloudy FEW025 SCT031 OVC038 54 48     82%     30.01        
Notice The following observation data may not be complete
Jun 08 21:15   10 Cloudy OVC034          %              
Jun 08 18:15 SSW 3 9 Mostly Cloudy FEW025 SCT034 BKN040 55 50     82%     30        
Notice The following observation data may not be complete
Jun 08 10:35   10 Cloudy BKN020 OVC028          %              
Jun 08 10:15 S 3 10 Cloudy BKN020 OVC025 50 48     94% 49   29.98        
Notice The following observation data may not be complete
Jun 08 08:55   3 Mostly Cloudy SCT019 BKN027          %              
Notice The following observation data may not be complete
Jun 08 08:35   3 Cloudy FEW012 BKN019 OVC024          %              
Notice The following observation data may not be complete
Jun 08 07:35   1.5 Cloudy SCT003 OVC017          %              
Jun 08 02:15 W 3 5 Cloudy FEW003 BKN036 OVC043 54 54     100%     29.85        
Jun 07 23:15 S 7 9 Mostly Cloudy FEW034 SCT055 BKN075 57 46     67%              
Notice The following observation data may not be complete
Jun 07 22:35   10 Partly Cloudy FEW065 SCT110          %              
Jun 07 18:55 S 9 10 Clear CLR 72 45     38%   70 29.82        
Jun 07 13:55 SSE 8 10 Clear CLR 79        %     29.85        
Jun 06 08:15 ENE 3 10 Clear CLR 61 43     51%     30        
Notice The following observation data may not be complete
Jun 06 06:15   10 Clear CLR          %              
Jun 06 05:55 W 6 10 Clear CLR 52 39     62%     29.99        
Jun 06 03:15 Calm 10 Clear CLR 55 41     58%     29.97        
Jun 06 01:15 W 3 10 Clear CLR 59 41     51%     29.97        
Notice The following observation data may not be complete
Jun 05 23:35   10 Clear CLR          %              
Notice The following observation data may not be complete
Jun 05 23:15   10 Clear CLR          %              
Jun 05 19:15 S 3 10 Clear CLR 82        %     29.9        
Jun 05 12:15 Calm 9 Clear CLR 75        %     29.97